• Processing (Info)

  • MPEC 2023-K106 : 2023 KS1

    The following Minor Planet Electronic Circular may be linked-to from your own Web pages, but must not otherwise be redistributed electronically.

    A form allowing access to any MPEC is at the bottom of this page.


    Read MPEC 2023-K105 Read MPEC 2023-K107


    M.P.E.C. 2023-K106                                 Issued 2023 May 23, 03:07 UT
    
         The Minor Planet Electronic Circulars contain information on unusual
             minor planets, routine data on comets and natural satellites,
             and occasional editorial announcements.  They are published
        on behalf of Division F of the International Astronomical Union by the
              Minor Planet Center, Smithsonian Astrophysical Observatory,
                              Cambridge, MA 02138, U.S.A.
    			  
                 Prepared using the Tamkin Foundation Computer Network
    
                                  MPC@CFA.HARVARD.EDU
                URL https://www.minorplanetcenter.net/    ISSN 1523-6714
    
                                    2023 KS1                                 
    
    
    Observations:
         K23K01S* C2023 05 21.38985 17 42 37.74 +42 55 39.7          18.97gUEK106I41
         K23K01S  C2023 05 21.39019 17 42 38.06 +42 55 19.4          18.97gUEK106I41
         K23K01S  C2023 05 21.39363 17 42 40.74 +42 51 55.7          19.22gUEK106I41
         K23K01S  C2023 05 21.39398 17 42 41.04 +42 51 36.2          19.22gUEK106I41
         K23K01S  C2023 05 21.40996 17 42 53.52 +42 35 50.3          18.49RUEK106I41
         K23K01S  C2023 05 21.41031 17 42 53.80 +42 35 29.7          18.49RUEK106I41
         K23K01S KC2023 05 21.45911917 43 28.391+41 47 14.24         18.53GVEK106I52
         K23K01S KC2023 05 21.45963217 43 28.780+41 46 43.72         18.58GVEK106I52
         K23K01S KC2023 05 21.46014517 43 29.190+41 46 13.26         18.72GVEK106I52
         K23K01S KC2023 05 21.46065617 43 29.572+41 45 42.84         18.63GVEK106I52
         K23K01S  C2023 05 21.67704 17 47 02.50 +38 16 58.9          19.1 RrEK106P93
         K23K01S  C2023 05 21.67845 17 47 03.45 +38 15 37.8          18.9 RrEK106P93
         K23K01S  C2023 05 21.67985 17 47 04.32 +38 14 18.7          19.0 RrEK106P93
         K23K01S  C2023 05 21.68125 17 47 05.25 +38 12 59.7          18.9 RrEK106P93
         K23K01S KC2023 05 21.85120617 49 37.75 +35 30 46.5          19.0 GVEK106104
         K23K01S KC2023 05 21.86095617 49 44.49 +35 21 57.0          18.6 GVEK106104
         K23K01S KC2023 05 21.86361217 49 46.31 +35 19 33.0                VEK106104
         K23K01S KC2023 05 21.88793 17 49 58.81 +34 57 25.5          18.8 GXEK106G02
         K23K01S KC2023 05 21.89042 17 50 00.39 +34 55 10.9          18.7 GXEK106G02
         K23K01S KC2023 05 21.89299 17 50 02.03 +34 52 52.0          18.9 GXEK106G02
         K23K01S KC2023 05 21.93974 17 50 34.67 +34 11 07.3          19.6 GXEK106K83
         K23K01S KC2023 05 21.94111 17 50 35.44 +34 09 52.7          18.8 GXEK106K83
         K23K01S KC2023 05 21.94248 17 50 36.29 +34 08 39.5          19.5 GXEK106K83
         K23K01S KC2023 05 21.97490417 50 57.283+33 38 30.44         18.6 GVEK106J95
         K23K01S KC2023 05 21.97662617 50 58.298+33 36 58.57         18.3 GVEK106J95
         K23K01S KC2023 05 21.97834417 50 59.335+33 35 26.16         18.6 GVEK106J95
         K23K01S KC2023 05 21.98003717 51 00.358+33 33 56.05         18.5 GVEK106J95
         K23K01S IC2023 05 22.09096517 51 56.34 +31 56 14.0          18.6 GVEK106L01
         K23K01S KC2023 05 22.09201017 51 56.91 +31 55 17.3          18.6 GVEK106L01
         K23K01S KC2023 05 22.09305817 51 57.47 +31 54 22.2          18.3 GVEK106L01
         K23K01S IC2023 05 22.09419817 51 58.01 +31 53 21.5          18.3 GVEK106L01
         K23K01S pC2023 05 22.09542417 51 58.67 +31 52 15.8          18.6 GVEK106L01
         K23K01S pC2023 05 22.09656017 51 59.32 +31 51 16.5          18.4 GVEK106L01
         K23K01S KC2023 05 22.27466317 54 05.49 +29 18 17.9          18.6 VuEK106H21
         K23K01S KC2023 05 22.27676517 54 06.42 +29 16 31.7          18.6 VuEK106H21
         K23K01S KC2023 05 22.27886917 54 07.39 +29 14 45.7          18.7 VuEK106H21
         K23K01S KC2023 05 22.28097117 54 08.33 +29 13 00.1                uEK106H21
         K23K01S KC2023 05 22.31216 17 54 34.567+28 46 04.12         18.5 GVEK106U52
         K23K01S KC2023 05 22.31502 17 54 35.909+28 43 41.74         19.4 GVEK106U52
         K23K01S KC2023 05 22.31789 17 54 37.284+28 41 19.57         18.4 GVEK106U52
         K23K01S KC2023 05 22.32718 17 54 32.00 +28 34 19.0          19.0 VqEK106H36
         K23K01S KC2023 05 22.33228 17 54 34.20 +28 30 03.9          18.8 VqEK106H36
         K23K01S KC2023 05 22.33784 17 54 36.58 +28 25 26.6          18.6 VqEK106H36
         K23K01S 1C2023 05 22.44648417 55 27.642+26 56 40.45         18.49GVEK106703
         K23K01S 1C2023 05 22.44778517 55 28.114+26 55 35.83         18.69GVEK106703
         K23K01S 1C2023 05 22.44908517 55 28.686+26 54 32.18         18.19GVEK106703
         K23K01S 1C2023 05 22.45038517 55 29.230+26 53 29.00         19.44GVEK106703
         K23K01S KC2023 05 23.05353518 00 28.006+19 19 06.46         18.4 GVEK106J95
         K23K01S KC2023 05 23.05745618 00 29.206+19 16 24.13         19.0 GVEK106J95
         K23K01S KC2023 05 23.06211118 00 30.708+19 13 12.29         18.5 GVEK106J95
         K23K01S KC2023 05 23.06597618 00 31.949+19 10 32.77         18.6 GVEK106J95
    
    Observer details:
    104 San Marcello Pistoiese.  Observers P. Bacci, M. Maestripieri.  Measurers
        P. Bacci, L. Tesi, G. Fagioli.  0.60-m F4 Reflector + CCD.
    703 Catalina Sky Survey.  Observer G. J. Leonard.  Measurers E. J.
        Christensen, D. Fay, J. B. Fazekas, D. C. Fuls, A. R. Gibbs, A. D. Grauer,
        H. Groeller, J. K. Hogan, R. A. Kowalski, S. M. Larson, G. J. Leonard, D.
        Rankin, R. L. Seaman, A. Serrano, F. C. Shelly, K. W. Wierzchos.  0.68-m
        Schmidt + 10K CCD.
    G02 KYSUCE Observatory, Kysucke Nove Mesto.  Observer M. Urbanik.  0.40-m
        f/5.5 Corrected Dall-Kirkham + CCD.
    H21 Astronomical Research Observatory, Westfield.  Observer R. Holmes.
        Measurers T. Linder, R. Holmes, L. Horn.  0.76-m f/3.0 astrograph + CCD.
    H36 Sandlot Observatory, Scranton.  Observer G. Hug.  0.56-m f/4.8 .56 meter
        reflector + CCD.
    I41 Palomar Mountain--ZTF.  Observers K. Venkataramani, T. Prince, G. Helou,
        Q.-Z. Ye, D. Kulkarni, V. Swain, C. Y. Hsu, Y. Cheng.  Measurers F. Masci,
        D. Shupe, K. Venkataramani, Q.-Z. Ye.  1.2-m f/2.44 Oschin-Schmidt + CCD.
    I52 Steward Observatory, Mt. Lemmon Station.  Observer J. B. Fazekas.
        Measurers E. J. Christensen, D. Fay, J. B. Fazekas, D. C. Fuls, A. R.
        Gibbs, A. D. Grauer, H. Groeller, J. K. Hogan, R. A. Kowalski, S. M.
        Larson, G. J. Leonard, D. Rankin, R. L. Seaman, A. Serrano, F. C. Shelly,
        K. W. Wierzchos.  1.0-m prime focus + CCD.
    J95 Great Shefford.  Observer P. Birtwhistle.  0.41-m f/6.3 Schmidt-Cassegrain
        + CCD.
    K83 Beppe Forti Astronomical Observatory, Montelupo.  Observers M. Tombelli,
        A. Boattini, A. Squilloni.  Measurers M. Tombelli, F. Bernardi.  0.40-m
        f/8 Ritchey-Chretien + CCD.
    L01 Visnjan Observatory, Tican.  Observer K. Korlevic.  1.0-m f/2.9 reflector
        + CCD.
    P93 Space Tracking and Communications Center, JAXA.  Observers T. Nimura, D.
        Kuroda.  1.0-m f/3.0 reflector + CCD.
    U52 Shasta Valley Observatory, Grenada.  Observers J. E. Rogers, B. Haeusler.
        Measurers J. E. Rogers, D. Parrott.  0.30-m f/5.2 0.30-m Helin Telescope +
        CCD.
    
    Orbital elements:
    2023 KS1                                                 Earth MOID = 0.0201 AU
    Epoch 2023 Feb. 25.0 TT = JDT 2460000.5                 Alexandersen            
    M 343.90196              (2000.0)            P               Q                  
    n   0.28544371     Peri.  126.34429     -0.92138119     +0.38338173             
    a   2.2844890      Node    76.27624     -0.37432075     -0.83113264             
    e   0.5873689      Incl.    3.76779     -0.10459765     -0.40278652             
    P   3.45           H   25.08          G   0.15           U   7                  
    Residuals in seconds of arc
    230521 I41  0.1+  0.1-    230521 G02  0.3+  0.2+    230522 H21  0.1-  0.2-
    230521 I41  0.6+  0.2-    230521 G02  0.1+  0.6+    230522 H21  0.1+  0.1-
    230521 I41  0.2+  0.5-    230521 G02  0.1+  1.0+    230522 H21  0.1-  0.3+
    230521 I41  0.5+  0.7+    230521 K83  0.1+  0.8+    230522 U52  0.2+  0.2-
    230521 I41  0.4-  0.1+    230521 K83  0.4-  0.1-    230522 U52  0.1+  0.5-
    230521 I41  0.3-  0.2+    230521 K83  0.0   0.4+    230522 U52  0.5+  0.0
    230521 I52  0.1+  0.0     230521 J95  0.1-  0.0     230522 H36  0.5+  1.5-
    230521 I52  0.0   0.1-    230521 J95  0.2-  0.3+    230522 H36  0.3+  1.7-
    230521 I52  0.1+  0.1-    230521 J95  0.1-  0.2-    230522 H36  0.0   1.2-
    230521 I52  0.1-  0.1-    230521 J95  0.1+  0.2+    230522 703  0.3-  1.1+
    230521 P93  0.3-  0.5+    230522 L01  0.1-  0.9+    230522 703  1.1-  0.2+
    230521 P93  0.2+  0.5-    230522 L01  0.2+  0.3-    230522 703  0.5-  0.3+
    230521 P93  0.3-  0.2-    230522 L01  0.3+  0.3+    230522 703  0.2-  0.9+
    230521 P93  0.0   0.3+    230522 L01  0.5-  0.1+    230523 J95  0.0   0.4+
    230521 104  0.4-  0.1-    230522 L01  0.3-  0.5-    230523 J95  0.5-  0.1-
    230521 104  0.1-  0.6-    230522 L01  0.4+  0.5+    230523 J95  0.1+  0.1+
    230521 104  0.0   0.6-    230522 H21  0.2+  0.0     230523 J95  0.6+  0.2-
    
    Ephemeris:
    2023 KS1                 a,e,i = 2.28, 0.59, 4                   q = 0.9427
    Date    TT    R. A. (2000) Decl.     Delta      r    Elong.  Phase     V
    2023 04 23    06 23 51.5 +40 16 40   0.1693  0.9427    63.8   107.0    25.1
    ...
    2023 05 08    06 44 05.7 +48 34 18   0.08000 0.9660    55.5   120.5    24.4
    ...
    2023 05 16    07 31 42.9 +68 34 01   0.03506 0.9949    61.9   116.3    22.4
    ...
    2023 05 22    17 51 01.4 +33 19 17   0.02159 1.0229   119.5    59.5    18.9
    2023 05 23    18 00 02.1 +20 00 01   0.02447 1.0281   129.6    49.4    18.9
    2023 05 24    18 05 47.7 +09 52 40   0.02840 1.0334   136.7    42.2    19.1
    ...
    2023 05 30    18 18 36.3 -15 38 43   0.06045 1.0675   152.5    26.0    20.3
    ...
    2023 06 07    18 21 10.0 -24 22 06   0.1096  1.1188   160.9    17.3    21.4
    ...
    2023 06 22    18 17 49.9 -28 57 12   0.2126  1.2277   173.2     5.6    22.6
    
    M. P. C. Staff               (C) Copyright 2023 MPC           M.P.E.C. 2023-K106
    


    Read MPEC 2023-K105 Read MPEC 2023-K107


    MPEC number:

    Enter an MPEC number in one of the following forms:

    • 1997-B01 (the full form)
    • J97B01 (the packed version of the full form)
    • B01 (the abbreviated form)